Probability
3 2 1 0 0 0 0 0 0 0 0 0 0 0 0 0 0 0 1 2 2 1 0 0 0 0 0 0 0 0 0 0 0 0 0 0 0 0 0 0 0 0 0
1 1 1 0 0 0 0 0 0 0 0 0 0 0 0 0 0 0 1 2 2 1 0 0 0 0 0 0 0 0 0 0 0 0 0 0 0 0 0 0 0 0 0
0 0 0 0 0 0 0 0 0 0 0 0 0 0 0 0 0 0 0 1 1 0 0 0 1 2 2 1 0 0 1 1 0 0 0 0 0 0 0 0 0 0 0
0 0 0 0 0 0 0 0 0 0 0 0 0 0 0 0 0 0 0 0 0 0 0 1 4 6 5 3 2 1 2 2 1 0 0 0 0 0 0 0 1 1 1
1 0 0 0 0 0 0 0 0 0 0 0 0 0 0 0 0 0 0 0 0 0 0 1 5 8 8 7 5 4 4 3 2 0 0 0 0 0 0 0 1 2 2
2 1 0 0 0 0 0 0 0 0 0 0 0 0 0 0 0 0 0 0 0 0 0 1 3 5 7 8 8 8 7 5 3 2 1 0 0 0 0 0 1 2 3
2 1 0 0 0 0 0 0 0 0 0 0 0 0 0 0 0 0 0 0 0 0 0 0 0 1 3 5 7 9 9 8 6 4 3 2 1 1 1 1 1 2 3
1 0 0 0 0 0 0 0 0 0 0 0 0 0 0 0 0 0 0 0 0 0 0 0 0 0 0 1 3 6 9 9 8 6 6 5 4 3 3 2 2 3 3
2 1 1 1 0 0 0 0 0 0 0 0 0 0 0 0 0 0 0 0 0 0 0 0 1 1 0 0 0 3 7 9 8 7 6 6 6 5 4 3 3 3 3
2 2 2 1 0 0 0 0 0 0 0 0 0 0 0 0 0 0 0 0 0 0 0 0 1 1 1 0 0 1 4 6 7 6 6 6 6 6 5 4 3 3 3
2 3 3 2 1 1 1 0 0 0 0 0 0 0 0 0 0 0 0 0 0 0 0 0 1 1 1 0 0 2 3 4 5 4 4 4 5 6 5 4 3 3 3
3 4 4 3 2 2 1 0 0 0 0 0 0 0 0 0 0 0 0 0 0 0 0 0 0 0 0 0 1 3 3 3 3 3 2 3 4 5 5 4 3 3 3
2 3 4 2 1 1 1 0 0 0 0 0 0 0 0 0 0 0 0 0 0 0 0 0 0 0 0 0 1 3 3 1 1 1 1 1 2 3 3 3 3 3 3
1 2 3 2 1 0 0 0 0 0 0 0 0 0 0 0 0 0 0 0 0 0 0 0 0 0 0 0 0 1 1 0 0 0 0 0 1 1 1 1 1 2 2
1 2 3 3 1 0 0 0 0 0 0 0 0 0 0 0 0 1 1 0 0 0 0 0 0 0 0 0 0 0 0 0 0 0 0 0 0 0 0 0 0 1 1
3 3 3 2 1 0 0 0 0 0 0 0 0 0 0 0 1 2 2 1 1 0 0 0 0 0 0 0 0 0 0 0 0 0 0 0 0 0 0 0 0 0 0
4 4 4 2 1 0 0 0 0 0 0 0 0 1 1 1 2 3 3 2 1 0 0 0 0 0 0 0 0 0 0 0 0 0 0 0 0 0 0 0 0 0 0
4 5 4 2 1 1 1 1 1 1 1 1 1 2 2 3 3 3 2 1 1 0 1 1 0 1 1 0 0 0 0 0 0 0 0 0 0 0 0 0 0 0 0
3 4 3 2 2 2 2 3 3 3 2 2 3 3 3 3 2 1 1 0 0 1 2 2 2 2 2 1 0 0 0 0 0 0 0 0 0 0 0 0 0 0 0
3 4 4 3 3 3 3 4 4 4 3 3 3 3 3 2 1 0 0 0 0 1 2 3 3 3 3 1 1 1 1 1 0 0 0 0 0 0 0 0 0 0 0
5 5 4 3 3 3 3 3 4 3 3 3 3 2 1 1 0 0 0 0 0 0 1 2 2 3 3 3 2 2 2 1 0 0 0 0 0 0 0 0 0 0 0
6 6 4 3 3 3 3 3 2 2 2 2 1 1 0 0 0 0 0 0 0 0 0 1 1 1 2 2 2 2 2 1 0 0 0 0 0 0 0 0 0 0 0
6 7 6 4 3 3 3 2 1 1 1 1 0 0 0 0 0 0 0 0 0 0 0 0 0 0 1 1 1 0 1 1 0 0 0 0 0 0 0 0 0 0 0
6 7 6 4 3 3 3 2 1 0 0 0 0 0 0 0 0 0 0 0 0 0 0 0 0 0 0 0 0 0 0 1 0 0 0 0 0 0 0 0 0 0 0
7 7 6 6 5 4 4 3 1 0 0 0 1 1 0 0 0 0 0 0 1 1 1 1 0 0 0 0 0 0 0 0 0 0 0 0 0 0 0 0 0 0 0
8 6 6 7 6 5 5 4 1 0 0 1 2 2 1 0 0 0 0 1 2 2 2 2 1 0 0 0 0 0 0 0 0 0 0 0 0 0 0 0 0 0 0
Wind_Speed
3 3 2 2 2 1 2 2 1 1 1 2 2 3 4 4 5 4 4 11 11 11 12 12 12 12 11 11 11 10 10 10 9 8 8 8 8 8 8 8 7 7 6
4 3 3 3 2 2 3 2 2 2 2 1 1 2 3 4 5 5 4 7 11 11 12 12 12 12 12 12 11 11 11 10 10 9 9 8 8 8 8 8 8 8 7
4 4 3 3 3 3 2 2 2 1 1 1 1 2 3 4 5 5 5 4 5 10 12 13 13 13 13 12 12 12 11 11 10 10 10 9 9 8 8 8 8 8 8
4 4 3 2 2 2 2 2 2 1 1 1 1 1 2 3 5 5 5 5 4 4 8 13 13 13 13 13 13 13 12 12 11 11 11 11 10 10 9 9 9 9 9
4 3 2 2 2 2 2 2 2 2 1 1 2 2 2 3 4 5 5 6 5 5 5 8 12 13 14 14 14 14 14 13 13 12 12 12 12 11 10 10 10 10 9
3 3 2 2 2 1 1 1 2 1 2 2 2 1 1 2 2 3 4 5 5 6 5 5 5 7 12 12 13 13 14 14 13 14 14 14 13 12 11 11 11 11 10
3 3 2 2 2 2 2 2 2 1 1 1 1 1 2 1 1 2 2 3 4 5 5 5 4 3 4 9 10 11 12 13 13 13 13 13 13 12 12 12 12 11 11
4 4 3 3 2 2 2 2 2 1 1 1 2 1 1 3 2 2 1 3 3 3 4 6 5 5 4 3 5 10 12 12 12 12 12 12 12 12 12 12 12 12 11
4 3 4 3 3 3 3 3 3 3 2 1 2 3 3 3 2 2 1 1 2 2 3 3 5 5 5 4 3 7 10 10 11 11 11 10 9 9 9 9 10 10 10
3 3 3 4 3 3 3 3 3 2 3 2 1 1 2 3 2 1 2 1 1 1 2 2 3 3 3 3 4 5 8 8 8 9 8 7 7 7 6 7 7 7 7
2 3 3 3 3 2 3 3 2 2 2 3 2 1 1 1 2 2 2 1 1 0 1 2 2 2 2 2 2 3 5 6 6 5 5 4 4 5 5 5 5 5 5
1 1 2 2 3 2 3 3 3 3 3 3 2 2 2 2 2 2 2 2 1 1 0 0 1 1 1 1 2 3 4 4 4 5 4 3 3 2 3 3 3 3 3
1 1 2 2 2 2 3 2 2 2 2 2 3 2 2 2 2 2 2 2 1 1 0 1 0 1 1 1 1 4 4 5 5 4 4 4 3 3 4 3 3 2 2
2 2 1 1 1 2 2 2 2 2 2 2 2 2 2 2 2 2 3 3 1 1 0 1 1 1 1 1 2 3 3 5 5 6 5 5 5 5 5 5 5 5 4
1 1 1 1 1 1 1 2 1 1 1 2 1 1 1 1 1 2 2 3 4 2 2 2 1 1 1 2 3 2 2 5 6 6 6 6 6 6 6 6 6 5 5
1 1 1 1 1 1 1 1 1 1 1 1 1 1 1 1 1 1 1 2 3 3 2 1 1 1 2 3 4 3 3 6 6 7 7 7 7 7 6 6 6 6 5
1 1 1 1 1 1 1 1 1 1 1 1 0 1 1 0 0 0 1 1 1 2 3 1 0 1 2 2 2 2 2 2 3 6 7 7 7 7 7 6 6 6 5
1 1 1 2 1 1 1 1 1 1 2 2 1 1 0 0 0 0 1 1 1 2 3 3 1 1 1 2 3 3 2 2 2 6 7 7 7 7 6 6 6 5 5
2 1 2 2 1 1 1 1 1 1 1 1 1 1 0 1 0 0 1 1 1 1 2 3 2 1 1 2 2 2 2 1 2 4 6 6 6 6 6 6 5 4 4
2 2 2 2 1 1 1 1 2 2 2 1 1 1 1 1 1 0 1 1 2 2 2 3 2 1 1 1 2 2 1 0 1 2 3 4 5 5 5 5 5 4 3
2 2 2 2 2 2 1 1 2 3 2 2 2 1 2 3 3 2 1 2 2 2 2 2 2 1 1 2 2 2 2 1 0 1 1 1 1 1 2 3 4 4 4
2 2 2 2 2 2 2 3 3 2 2 2 2 2 2 3 4 5 5 3 3 3 3 2 2 2 2 2 2 2 3 2 2 2 2 2 2 2 2 2 3 4 4
1 2 2 2 2 2 3 3 3 3 2 2 2 2 2 3 3 3 4 5 4 3 3 3 3 2 2 3 3 3 3 3 3 3 3 2 2 2 2 3 6 5 5
2 2 2 1 2 2 3 3 3 3 3 2 2 2 2 2 2 3 3 4 3 3 2 1 2 2 2 2 3 3 4 2 1 1 3 2 2 2 2 2 5 6 6
2 2 1 2 2 2 3 3 3 3 3 2 2 2 3 2 3 4 4 3 3 2 2 3 2 1 2 3 3 2 2 2 1 1 1 2 2 1 1 2 3 6 6
2 2 2 1 2 1 2 3 4 3 3 2 2 2 3 3 3 4 3 3 2 1 2 2 2 2 2 1 2 3 3 3 1 1 2 2 2 2 1 2 2 2 3
Wind_Direction
165 170 178 192 206 193 190 204 222 223 231 249 207 167 152 155 161 167 176 179 179 180 179 179 179 181 181 182 184 183 184 184 184 184 186 187 185 186 190 189 189 188 189
164 169 175 189 210 211 201 197 202 201 205 194 188 170 163 165 169 176 179 186 188 187 188 188 189 190 190 192 193 193 194 194 193 193 195 196 196 197 201 203 203 202 199
162 166 172 186 203 203 199 187 184 171 178 180 182 189 174 177 177 180 181 185 193 197 196 196 197 197 199 200 200 201 202 203 202 201 202 203 204 205 208 209 210 212 208
163 158 166 191 197 178 176 180 173 149 170 181 196 208 188 184 185 186 186 188 191 199 206 205 205 205 207 207 207 207 208 209 209 209 209 209 209 211 213 214 216 217 215
163 157 172 185 180 168 173 187 168 166 176 213 219 217 209 196 197 192 192 194 195 198 201 208 210 212 214 215 214 213 214 214 214 214 216 216 216 217 217 218 219 219 219
172 162 172 181 170 155 174 168 164 172 181 200 225 240 258 223 201 197 200 196 198 205 204 207 209 218 219 221 221 219 219 219 218 219 222 223 222 222 221 222 223 223 222
181 170 172 177 172 174 195 182 155 161 205 165 103 360 338 304 230 212 205 194 196 200 198 197 197 204 219 224 226 226 225 223 223 222 224 224 224 224 224 224 224 224 224
191 184 176 182 187 179 181 179 156 157 214 164 145 124 339 335 324 249 212 205 204 191 192 196 194 199 203 206 221 225 230 231 229 228 225 226 228 226 225 226 228 227 226
195 188 186 184 186 178 191 200 180 169 198 234 173 158 164 220 280 320 289 216 187 183 200 197 196 207 204 203 217 228 231 234 231 229 226 224 223 224 226 227 228 226 226
199 194 195 195 193 186 193 207 189 182 179 213 235 204 184 172 170 274 320 314 201 194 201 203 202 204 201 202 209 210 220 225 226 227 222 216 210 209 208 216 221 220 215
219 209 198 194 193 193 201 203 190 190 185 187 197 202 200 187 167 168 249 299 349 319 188 195 195 181 187 199 204 197 206 217 217 212 209 204 205 206 208 216 220 219 214
252 242 200 189 195 196 200 199 198 197 197 185 186 187 180 183 191 177 205 225 237 294 2 166 180 182 173 169 162 146 166 186 179 175 173 169 166 175 170 180 197 206 206
238 236 194 181 194 201 197 191 190 206 199 192 197 204 203 209 190 177 179 204 222 253 301 12 37 153 132 119 131 129 130 128 135 145 143 141 132 125 122 122 122 120 111
227 232 194 185 200 199 191 184 184 204 194 204 220 209 202 219 197 184 177 171 188 254 243 236 40 102 124 124 116 132 128 131 135 132 131 127 121 115 109 104 99 91 84
213 192 170 166 177 180 165 149 167 207 192 201 212 202 200 228 215 204 181 172 168 193 231 222 182 144 138 118 122 126 134 128 132 132 129 125 120 114 107 102 96 92 86
194 162 142 131 142 154 145 141 153 203 173 199 188 165 196 241 239 215 186 181 177 176 197 209 192 157 136 125 118 120 124 120 130 132 131 128 124 120 115 108 101 94 89
140 125 124 111 115 131 163 160 189 166 170 177 164 152 189 157 156 223 134 142 151 146 161 198 142 123 124 129 120 110 108 112 124 129 129 127 125 120 116 110 103 97 91
77 86 99 100 108 112 131 152 180 180 175 160 162 139 182 124 102 111 135 149 158 153 156 168 171 154 147 152 140 128 122 123 120 124 129 129 127 123 120 112 103 95 89
78 69 82 91 95 96 100 108 125 131 130 132 133 137 159 109 104 63 114 125 138 131 141 151 165 151 131 143 119 117 116 89 127 128 131 133 134 131 127 121 112 104 101
99 80 72 76 73 84 90 85 94 93 89 89 94 108 95 109 135 117 115 105 97 95 105 128 140 139 142 141 132 146 132 128 141 126 130 138 140 144 145 141 139 133 126
110 99 80 64 56 58 59 95 121 112 98 83 68 64 72 87 81 86 101 113 113 109 110 125 141 135 152 167 187 185 166 153 182 168 148 158 153 171 181 175 169 163 156
102 98 94 86 64 42 62 92 105 110 104 97 85 66 60 64 65 68 78 96 123 132 141 147 167 180 195 198 184 170 158 155 204 202 165 198 178 206 218 212 201 187 186
99 101 101 95 85 54 82 101 101 105 96 96 103 96 79 58 64 68 64 66 70 88 131 157 166 195 193 194 172 174 183 183 196 186 157 191 189 220 227 212 204 205 208
109 105 97 96 91 65 86 104 102 92 82 73 81 100 99 71 56 85 81 69 56 43 46 114 173 206 202 193 186 186 185 169 121 143 141 165 196 218 227 216 213 213 215
99 98 98 100 92 49 64 91 104 97 83 60 51 73 99 92 77 96 93 85 66 24 42 73 91 121 133 136 139 118 124 134 168 229 172 158 180 193 232 232 225 216 216
110 108 88 89 100 74 70 94 111 109 103 83 54 52 73 94 93 98 102 104 96 358 15 27 33 30 49 88 122 144 151 148 157 221 207 158 163 146 219 259 229 217 221